Date,TemperatureHighF,TemperatureAvgF,TemperatureLowF,DewpointHighF,DewpointAvgF,DewpointLowF,HumidityHigh,HumidityAvg,HumidityLow,PressureMaxIn,PressureMinIn,WindSpeedMaxMPH,WindSpeedAvgMPH,GustSpeedMaxMPH,PrecipitationSumIn
2013-8-1,92.7,83.0,75.6,76.8,72.5,69.6,90,72,51,29.98,29.85,13,4,0,0.00
2013-8-2,93.6,83.9,75.2,76.3,72.7,69.2,88,70,47,29.94,29.86,13,3,0,0.00
2013-8-3,92.3,83.7,75.6,76.2,73.1,67.2,93,72,47,30.01,29.92,12,3,0,0.00
2013-8-4,93.9,83.0,75.4,75.9,72.5,62.4,92,73,37,30.04,29.92,17,3,0,0.00
2013-8-5,93.6,83.5,75.4,76.0,72.7,66.5,91,72,44,30.00,29.88,14,4,0,0.00
2013-8-6,93.2,84.1,75.6,75.9,72.6,67.0,91,71,44,29.95,29.83,14,5,0,0.00
2013-8-7,93.2,82.4,79.7,75.1,74.0,67.0,83,77,43,29.89,29.82,9,6,0,0.00
2013-8-8,94.1,84.5,75.2,76.2,72.9,68.6,92,70,45,29.91,29.81,16,4,0,0.00
2013-8-9,92.5,81.9,77.2,76.9,74.7,69.3,91,80,50,29.95,29.85,28,4,0,0.16
2013-8-10,92.8,81.9,76.1,75.8,72.7,67.3,92,76,44,30.01,29.91,26,4,0,0.00
2013-8-11,87.6,79.8,75.7,75.2,73.3,68.3,91,81,53,30.04,29.98,21,4,0,0.12
2013-8-12,90.1,79.9,75.6,76.4,73.6,67.8,92,82,53,30.04,29.95,28,4,0,0.16
2013-8-13,88.5,78.4,72.0,76.4,73.0,66.8,93,84,61,29.98,29.86,34,6,0,0.91
2013-8-14,77.5,74.3,72.5,73.4,71.0,69.6,92,90,83,29.93,29.87,15,4,0,0.47
2013-8-16,86.9,82.0,74.8,71.1,66.8,62.7,74,61,47,29.93,29.85,14,5,0,0.00
2013-8-17,85.5,76.7,69.8,70.7,68.3,65.6,91,76,55,29.92,29.84,18,6,0,0.00
2013-8-18,84.9,76.6,69.1,70.5,67.5,64.4,91,75,54,29.96,29.88,15,6,0,0.00
2013-8-19,84.2,77.4,72.0,71.4,69.4,67.0,90,77,61,30.00,29.91,14,4,0,0.00
2013-8-20,89.1,78.2,72.3,73.1,70.1,64.8,92,78,48,30.00,29.92,18,3,0,0.00
2013-8-21,89.6,78.2,73.6,74.2,71.3,65.7,91,80,48,30.05,29.96,31,5,0,0.00
2013-8-22,90.0,81.4,74.1,73.7,70.8,66.2,92,72,46,30.03,29.89,23,4,0,0.00
2013-8-23,91.4,83.8,74.1,73.8,70.4,66.7,92,67,47,29.95,29.87,18,7,0,0.00
2013-8-24,90.7,90.7,90.7,68.2,68.2,68.2,48,48,48,29.87,29.87,11,11,0,0.00
2013-8-25,90.7,90.7,90.7,68.2,68.2,68.2,48,48,48,29.87,29.87,11,11,0,0.00
2013-8-26,90.7,81.4,74.5,72.8,70.3,66.6,91,71,48,30.12,29.87,20,7,0,0.16
2013-8-27,85.5,77.0,71.2,71.6,68.6,63.7,92,78,50,30.07,30.01,11,4,0,0.00
2013-8-29,88.0,80.5,68.9,69.5,65.2,60.9,89,62,41,30.02,29.91,7,2,0,0.00
2013-8-30,90.3,79.2,69.6,71.5,67.1,62.6,91,70,41,29.99,29.86,6,2,0,0.00
2013-8-31,91.2,81.0,70.2,72.6,68.8,65.1,91,69,44,29.93,29.80,12,3,0,0.00